x

9444090 - Port Angeles, Wa (ptaw1) Weather Station

4:30 - Thu 23rd Feb 2017 All times are PST. -8 hours from GMT.

  • Wind
    7mph, 9mph gusts
  • Sea Temp 46°f
  • Luft Temp 43°f
  • Sea Pressure 1022.8mb
  • 9444090 - Port Angeles, Wa
  • 9444090 - Port Angeles, Wa

More Historic Weather Station data

Upgrade to MSW Pro to gain access to the past 30 days of data for over 8000 Wavebouys and Weather Stations around the globe.

Join Pro

Comparision Forecast

View Surf forecast
   
Do 02/23 4:30 7 9 mph 1022.8mb 46f 43f
4:24 6 8 mph 1022.8mb 46f 43f
4:18 6 8 mph 1022.8mb 46f 43f
4:12 7 8 mph 1022.8mb 46f 43f
4:06 6 8 mph 1022.9mb 46f 43f
4:00 6 8 mph 1022.9mb 46f 43f
3:36 7 8 mph 1023.2mb 46f 43f
3:30 7 8 mph 1023.2mb 46f 43f
3:24 6 8 mph 1023.3mb 46f 43f
3:18 6 8 mph 1023.4mb 46f 44f
3:12 7 8 mph 1023.6mb 46f 43f
3:06 6 8 mph 1023.6mb 46f 43f
3:00 6 8 mph 1023.7mb 46f 44f
2:36 5 7 mph 1023.9mb 46f 43f
2:30 3 6 mph 1023.9mb 46f 44f
2:24 3 6 mph 1024mb 46f 44f
2:18 3 7 mph 1024mb 46f 44f
2:12 3 6 mph 1024.1mb 46f 44f
2:06 5 6 mph 1024.1mb 46f 43f
2:00 5 6 mph 1024.1mb 46f 44f
1:36 3 6 mph 1024.4mb 46f 43f
1:30 5 7 mph 1024.5mb 46f 44f
1:24 5 6 mph 1024.5mb 46f 44f
1:18 5 6 mph 1024.6mb 46f 43f
1:12 5 6 mph 1024.7mb 46f 44f
1:06 3 6 mph 1024.8mb 46f 44f
1:00 3 6 mph 1024.8mb 46f 44f
12:36 5 7 mph 1025mb 46f 46f
12:30 3 6 mph 1025.1mb 46f 45f
12:24 3 6 mph 1025.1mb 46f 45f
12:18 6
mph
1025.2mb 46f 44f
12:12 5 7 mph 1025.3mb 46f 43f
12:06 5 7 mph 1025.3mb 46f 42f
12:00 5 6 mph 1025.2mb 46f 42f
11:36 8 9 mph 1025.3mb 46f 44f
11:30 7 10 mph 1025.2mb 46f 44f
11:24 7 8 mph 1025.2mb 46f 43f
11:18 7
mph
1025.3mb 46f 42f
11:12 7 8 mph 1025.3mb 46f 42f
11:06 5 8 mph 1025.2mb 46f 43f
11:00 5 6 mph 1025.2mb 46f 44f
10:36 5 6 mph 1025.3mb 46f 41f
10:30 3 5 mph 1025.3mb 46f 41f
10:24 2 5 mph 1025.4mb 46f 41f
10:18 5 6 mph 1025.4mb 46f 41f
10:12 3 5 mph 1025.4mb 46f 40f
10:06 2 5 mph 1025.4mb 46f 40f
10:00 2 3 mph 1025.4mb 46f 40f
9:36 3 5 mph 1025.3mb 46f 39f
9:30 3 5 mph 1025.3mb 46f 39f
9:24 3 5 mph 1025.3mb 46f 39f
9:18 3 5 mph 1025.2mb 46f 39f
9:12 3 5 mph 1025.2mb 46f 39f
9:06 2 3 mph 1025.2mb 46f 39f
9:00 3 5 mph 1025.1mb 46f 38f
8:36 2 5 mph 1025mb 46f 38f
8:30 3 6 mph 1025mb 46f 37f
8:24 6 7 mph 1025.1mb 46f 37f
8:18 6 7 mph 1025mb 46f 37f
8:12 5 6 mph 1025.1mb 46f 36f
8:06 3 6 mph 1025mb 46f 36f
8:00 5 7 mph 1025mb 46f 35f
7:36 6 8 mph 1024.9mb 46f 35f
7:30 7 9 mph 1024.8mb 46f 35f
7:24 6 8 mph 1024.7mb 46f 35f
7:18 7 8 mph 1024.7mb 46f 35f
7:12 7 8 mph 1024.7mb 46f 35f
7:06 6 7 mph - - -
7:00 6 8 mph 1024.5mb 46f 35f
6:36 6 7 mph 1024.4mb 46f 35f
6:30 6 8 mph 1024.3mb 46f 35f
6:24 6 8 mph 1024.3mb 46f 35f
6:18 7 8 mph 1024.3mb 46f 35f
6:12 7 10 mph 1024.3mb 46f 35f
6:06 8 10 mph 1024.3mb 46f 35f
6:00 7 9 mph 1024.3mb 46f 35f
5:36 7 9 mph 1024.2mb 46f 35f
5:30 8 9 mph 1024.3mb 46f 35f
5:24 8 9 mph 1024.2mb 46f 35f
5:18 8 11 mph 1024.3mb 46f 35f
5:12 8 10 mph 1024.3mb 46f 35f
5:06 8 13 mph 1024.3mb 46f 35f
5:00 9 13 mph 1024.4mb 46f 35f
4:36 9 13 mph 1024.4mb 46f 34f
4:30 9 11 mph 1024.5mb 46f 35f
4:24 5 7 mph 1024.5mb 46f 36f
4:18 7 10 mph 1024.5mb 46f 37f
4:12 9 11 mph 1024.4mb 46f 37f
4:06 11 16 mph 1024.4mb 46f 38f
4:00 10 14 mph 1024.3mb 46f 38f
3:36 3 5 mph 1023.9mb 46f 35f
3:30 2
mph
1024mb 46f 35f
3:24 2 3 mph 1023.9mb 46f 35f
3:18 3 5 mph 1023.9mb 46f 36f
3:12  -  2 mph 1023.8mb 46f 36f
3:06 1 6 mph 1023.8mb 46f 36f
3:00 5 7 mph 1023.7mb 46f 35f
2:36 3 6 mph 1023.7mb 46f 35f
2:30 3 6 mph 1023.7mb 46f 35f
2:24 3 5 mph 1023.7mb 46f 36f
2:18 3 7 mph 1023.7mb 46f 36f
2:12 6 7 mph 1023.7mb 46f 35f
2:06 6 8 mph 1023.7mb 46f 35f
2:00 7 9 mph 1023.8mb 46f 35f
Mi 02/22 4:54  -  mph 1022.5mb 46f 43f
4:48  -  mph 1022.5mb 46f 43f
3:54  -  mph 1022.4mb 46f 43f
3:48  -  mph 1022.4mb 46f 43f
2:54 7 10 mph 1022.4mb 46f 43f
2:48 9 11 mph 1022.4mb 46f 43f
1:54 10 14 mph 1022.3mb 46f 43f
1:48 10 15 mph 1022.3mb 46f 43f
12:54  -  mph 1022.4mb 46f 43f
12:48  -  mph 1022.4mb 46f 43f
11:54  -  mph 1022.5mb 46f 43f
11:48  -  mph 1022.5mb 46f 43f
10:54 10 14 mph 1022.6mb 46f 43f
10:48 11 14 mph 1022.6mb 46f 43f
9:54 7 10 mph 1022.6mb 46f 43f
9:48 8 11 mph 1022.6mb 46f 43f
8:54 2 5 mph 1022.3mb 46f 43f
8:48 3 5 mph 1022.2mb 46f 42f
7:54 7 9 mph 1022.2mb 46f 35f
7:48 7 9 mph 1022.2mb 46f 35f
6:54 8 9 mph 1021.9mb 46f 35f
6:48 7 8 mph 1021.8mb 46f 35f
5:54 6 7 mph 1021.8mb 46f 35f
5:48 7 8 mph 1021.9mb 46f 35f
4:54 5 9 mph 1021.7mb 46f 35f
4:48 6 8 mph 1021.7mb 46f 35f
2:36 6 8 mph 1021.6mb 46f 37f
2:30 6 7 mph 1021.5mb 46f 38f
2:24 7 9 mph 1021.5mb 46f 38f
2:18 9 11 mph 1021.4mb 46f 39f
2:12 8 11 mph 1021.4mb 46f 39f
2:06 8 13 mph 1021.4mb 46f 39f
2:00 8 11 mph 1021.4mb 46f 39f
1:36 7 10 mph 1021.2mb 46f 40f
1:30 7 13 mph 1021.2mb 46f 40f
1:24 9 11 mph 1021.1mb 46f 41f
1:18 7 10 mph 1021.1mb 46f 40f
1:12 8 10 mph 1021.1mb 46f 41f
1:06 7 11 mph 1021.1mb 46f 41f
1:00 7 11 mph 1021.1mb 46f 41f
12:36 7 13 mph 1021mb 46f 41f
12:30 8 14 mph 1020.9mb 46f 41f
12:24 8 13 mph 1020.8mb 46f 41f
12:18 9 14 mph 1020.8mb 46f 41f
12:12 8 13 mph 1020.7mb 46f 42f
12:06 6 14 mph 1020.7mb 46f 41f
12:00 6 11 mph 1020.6mb 46f 41f
Di 02/21 11:36 8 13 mph 1020.1mb 46f 42f
11:30 8 15 mph 1020.1mb 46f 41f
11:24 8 14 mph 1020.1mb 46f 41f
11:18 8 13 mph 1020.1mb 46f 41f
11:12 7 14 mph 1020.1mb 46f 41f
11:06 8 14 mph 1020.1mb 46f 41f
11:00 7 15 mph 1020.2mb 46f 41f
10:36 7 11 mph 1020.2mb 46f 41f
10:30 8 10 mph 1020.1mb 46f 41f
10:24 7 10 mph 1020.1mb 46f 41f
10:18 3 10 mph 1020.1mb 46f 41f
10:12 7 10 mph 1020.1mb 46f 41f
10:06 6 13 mph 1020.1mb 46f 41f
10:00 9 13 mph 1020mb 46f 41f
9:36 7 13 mph 1019.8mb 46f 42f
9:30 7 10 mph 1019.8mb 46f 42f
9:24 9 13 mph 1019.7mb 46f 42f
9:18 7 11 mph 1019.7mb 46f 42f
9:12 8 13 mph 1019.6mb 46f 42f
9:06 8 13 mph 1019.6mb 46f 43f
9:00 10 16 mph 1019.6mb 46f 42f
8:36 13 17 mph 1019.3mb 47f 41f
8:30 11 17 mph 1019.3mb 47f 41f
8:24 10 18 mph 1019.4mb 47f 41f
8:18 17 22 mph 1019.3mb 47f 42f
8:12 16 23 mph 1019.2mb 47f 42f
8:06 10 21 mph 1019.1mb 47f 43f
8:00 8 13 mph 1018.9mb 47f 43f
7:36 9 10 mph 1018.6mb 47f 43f
7:30 8 10 mph 1018.6mb 47f 44f
7:24 6 13 mph 1018.5mb 47f 44f
7:18 9 15 mph 1018.5mb 47f 44f
7:12 8 11 mph 1018.5mb 47f 43f
7:06 6 13 mph 1018.4mb 47f 43f
7:00 9 13 mph 1018.4mb 47f 44f
6:36 9 13 mph 1018.1mb 47f 44f
6:30 8 11 mph 1018.1mb 47f 44f
6:24 7 10 mph 1017.9mb 47f 44f
6:18 6 11 mph 1017.8mb 47f 44f
6:12 8 10 mph 1017.8mb 47f 44f
6:06 6 10 mph 1017.7mb 47f 44f
6:00 8 11 mph 1017.5mb 47f 44f
5:36 7 14 mph 1017.2mb 47f 45f
5:30 13 17 mph 1017.1mb 47f 45f
5:24 9 17 mph 1017mb 47f 45f
5:18 10 18 mph 1017mb 47f 46f
5:12 11 18 mph 1016.9mb 47f 46f
5:06 13 17 mph 1016.9mb 47f 46f
5:00 11 18 mph 1016.8mb 47f 46f
4:36 13 25 mph 1016.5mb 47f 46f
4:30 16 22 mph 1016.4mb 47f 46f
4:24 14 22 mph 1016.3mb 47f 46f
4:18 16 23 mph 1016.3mb 47f 47f
4:12 18 24 mph 1016.2mb 47f 46f
4:06 16 23 mph 1016.1mb 47f 47f
4:00 18 24 mph 1016mb 47f 46f
3:36 17 28 mph 1015.7mb 47f 46f
3:30 18 26 mph 1015.6mb 47f 46f
3:24 20 25 mph 1015.6mb 47f 46f
3:18 17 23 mph 1015.3mb 47f 46f
3:12 17 22 mph 1015.2mb 47f 46f
3:06 17 22 mph 1015.1mb 47f 46f
3:00 17 23 mph 1015mb 47f 46f
2:36 16 26 mph 1014.7mb 47f 46f
2:30 18 28 mph 1014.7mb 47f 46f
2:24 18 25 mph 1014.6mb 46f 46f
2:18 20 25 mph 1014.5mb 46f 46f
2:12 18 29 mph 1014.5mb 46f 46f
2:06 17 23 mph 1014.4mb 46f 46f
2:00 16 22 mph 1014.4mb 46f 46f
1:36 22 28 mph 1014.2mb 47f 46f
1:30 21 25 mph 1014.1mb 47f 46f
1:24 18 25 mph 1014.1mb 47f 46f
1:18 18 26 mph 1014.1mb 47f 46f
1:12 21 25 mph 1014.1mb 47f 45f
1:06 20 23 mph 1014mb 47f 46f
1:00 16 22 mph 1014mb 47f 46f
12:36 16 21 mph 1014mb 46f 45f
12:30 14 20 mph 1013.9mb 46f 45f
12:24 17 21 mph 1013.9mb 46f 45f
12:18 16 21 mph 1013.8mb 46f 45f
12:12 17 21 mph 1013.8mb 46f 45f
12:06 17 21 mph 1013.7mb 46f 44f
12:00 17 22 mph 1013.7mb 46f 44f
11:36 16 20 mph 1013.4mb 46f 44f
11:30 14 20 mph 1013.3mb 46f 44f
11:24 14 18 mph 1013.2mb 46f 44f
11:18 14 20 mph 1013.2mb 46f 44f
11:12 15 20 mph 1013.1mb 46f 44f
11:06 13 16 mph 1013mb 46f 44f
11:00 11 14 mph 1012.9mb 46f 44f
10:36 13 15 mph 1012.7mb 46f 44f
10:30 9 14 mph 1012.6mb 46f 44f
10:24 8 11 mph 1012.5mb 46f 44f
10:18 6 10 mph 1012.4mb 46f 44f
10:12 6 9 mph 1012.3mb 46f 44f
10:06 6 7 mph 1012.2mb 46f 44f
10:00 6 7 mph 1012.2mb 46f 44f
9:36 3 6 mph 1011.7mb 46f 44f
9:30 2 6 mph 1011.6mb 46f 43f
9:24 6 7 mph 1011.5mb 46f 43f
9:18 2 5 mph 1011.3mb 46f 43f
9:12 3 5 mph 1011.2mb 46f 43f
9:06 3 5 mph 1011.1mb 46f 43f
9:00 5 6 mph 1011mb 46f 43f
8:36 5 6 mph 1010.6mb 46f 43f
8:30 5 7 mph 1010.5mb 46f 43f
8:24 2 3 mph 1010.4mb 46f 43f
8:18 1 3 mph 1010.3mb 46f 43f
8:12 3 5 mph 1010.2mb 46f 43f
8:06 3 5 mph 1010.1mb 46f 43f
8:00 2 3 mph 1009.9mb 46f 43f
7:36 2 3 mph 1009.5mb 46f 43f
7:30 2 3 mph 1009.4mb 46f 42f
7:24 1 2 mph 1009.2mb 46f 42f
7:18 1 3 mph 1009.2mb 46f 42f
7:12 2 3 mph 1009.1mb 46f 42f
7:06 3
mph
1009mb 46f 42f
7:00 2 3 mph 1008.9mb 46f 42f
6:36 5
mph
1008.6mb 46f 43f
6:30 2 5 mph 1008.6mb 46f 42f
6:24 3
mph
1008.5mb 46f 42f
6:18 2 3 mph 1008.3mb 46f 42f
6:12 2 3 mph 1008.3mb 46f 42f
6:06 2 3 mph 1008.2mb 46f 42f
6:00 2
mph
1008.1mb 46f 42f
5:36 3 5 mph 1008mb 46f 42f
5:30 2 3 mph 1007.9mb 46f 42f
5:24 2 3 mph 1007.9mb 46f 42f
5:18 3 5 mph 1007.9mb 46f 42f
5:12 3 5 mph 1007.8mb 46f 42f
5:06 3 5 mph 1007.8mb 46f 42f
5:00 3 6 mph 1007.8mb 46f 42f
4:36 3
mph
1007.6mb 46f 42f
4:30 2 3 mph 1007.5mb 46f 42f
4:24 2 3 mph 1007.5mb 46f 42f
4:18 2 3 mph 1007.5mb 46f 42f
4:12 2 3 mph 1007.5mb 46f 42f
4:06 2 5 mph 1007.4mb 46f 43f
4:00 2 3 mph 1007.4mb 46f 43f
3:36 5 7 mph 1007.3mb 46f 43f
3:30 5 7 mph 1007.3mb 46f 43f
3:24 3 6 mph 1007.3mb 46f 43f
3:18 2 5 mph 1007.3mb 46f 42f
3:12 5 6 mph 1007.3mb 46f 42f
3:06 5 6 mph 1007.3mb 46f 42f
3:00 5 6 mph 1007.3mb 46f 42f
2:54 5 6 mph 1007.3mb 46f 42f
2:48 5 6 mph 1007.3mb 46f 42f
2:36 5 6 mph 1007.3mb 46f 42f
2:30 5 6 mph 1007.3mb 46f 42f
2:24 3 5 mph 1007.4mb 46f 42f
2:18 3 6 mph 1007.4mb 46f 42f
2:12 5
mph
1007.4mb 46f 42f
2:06 3 5 mph 1007.3mb 46f 42f
2:00 3 6 mph 1007.3mb 46f 42f
1:54 3 5 mph 1007.3mb 46f 42f
1:48 3 5 mph 1007.3mb 46f 42f
1:36 3 5 mph 1007.3mb 46f 42f
1:30 3 5 mph 1007.2mb 46f 42f
1:24 3 5 mph 1007.2mb 46f 42f
1:18 2 5 mph 1007.2mb 46f 42f
1:12 3 6 mph 1007.3mb 46f 42f
1:06 3 5 mph 1007.3mb 46f 42f
1:00 3 6 mph 1007.3mb 46f 42f
12:54 5 6 mph 1007.3mb 46f 42f
12:48 5
mph
1007.2mb 46f 42f
12:36 5 6 mph 1007.1mb 46f 42f
12:30 5 6 mph 1007.1mb 46f 42f
12:24 5 6 mph 1007.1mb 46f 42f
12:18 3 5 mph 1007mb 46f 42f
12:12 5 6 mph 1007mb 46f 42f
12:06 5 6 mph 1007mb 46f 42f
12:00 5 6 mph 1007mb 46f 42f
Mo 02/20 11:54 5 6 mph 1007mb 46f 42f
11:48 5
mph
1007mb 46f 42f
11:36 2 5 mph 1006.8mb 46f 43f
11:30 2 7 mph 1006.8mb 46f 43f
11:24 5 7 mph 1006.8mb 46f 43f
11:18 3 6 mph 1006.7mb 46f 43f
11:12 2 6 mph 1006.7mb 46f 43f
11:06 2 6 mph 1006.7mb 46f 43f
11:00 3 6 mph 1006.8mb 46f 43f
10:54 5 6 mph 1006.7mb 46f 43f
10:48 5 6 mph 1006.7mb 46f 43f
10:36 2 3 mph 1006.8mb 46f 43f
10:30 1 2 mph 1006.8mb 46f 43f
10:24 2 3 mph 1006.8mb 46f 44f
10:18 3 5 mph 1006.8mb 46f 44f
10:12 2 3 mph 1006.7mb 46f 43f
10:06 2
mph
1006.7mb 46f 43f
10:00 2 3 mph 1006.7mb 46f 43f
9:54 1 2 mph 1006.8mb 47f 43f
9:48 1 2 mph 1006.7mb 47f 43f
9:36 2 3 mph 1006.5mb 47f 43f
9:30 2 3 mph 1006.4mb 47f 43f
9:24 2 3 mph 1006.3mb 47f 43f
9:18 1 2 mph 1006.3mb 47f 43f
9:12 1 2 mph 1006.2mb 47f 44f
9:06 2 3 mph 1006.2mb 47f 44f
9:00 2 3 mph 1006.3mb 47f 44f
8:54 3
mph
1006.4mb 47f 44f
8:48 3 6 mph 1006.4mb 47f 44f
8:36 3 5 mph 1006.4mb 47f 44f
8:30 5 6 mph 1006.4mb 47f 44f
8:24 3 5 mph 1006.4mb 47f 44f
8:18 3 6 mph 1006.4mb 47f 44f
8:12 3 5 mph 1006.3mb 47f 44f
8:06 3 6 mph 1006.4mb 47f 44f
8:00 2 5 mph 1006.3mb 47f 44f
7:54 3 5 mph 1006.3mb 47f 44f
7:48 3 5 mph 1006.3mb 47f 44f
7:36 2 5 mph 1006.4mb 46f 44f
7:30 3 5 mph 1006.4mb 46f 45f
7:24 2 3 mph 1006.4mb 46f 45f
7:18  -  1 mph 1006.4mb 46f 45f
7:12  -  1 mph 1006.5mb 46f 45f
7:06  -  1 mph 1006.4mb 47f 45f
7:00  -  1 mph 1006.4mb 47f 45f
6:54  -  mph 1006.3mb 47f 45f
6:48  -  1 mph 1006.3mb 47f 45f
6:36 2
mph
1006.3mb 47f 45f
6:30 2
mph
1006.2mb 47f 45f
6:24  -  2 mph 1006.1mb 47f 45f
6:18  -  2 mph 1006.1mb 47f 45f
6:12 2
mph
1006mb 47f 45f
6:06 1 2 mph 1006mb 47f 45f
6:00 2
mph
1005.9mb 47f 46f
5:54 1 2 mph 1005.9mb 47f 45f
5:48 2 3 mph 1005.9mb 47f 45f
5:36 3
mph
1005.7mb 47f 45f
5:30 2 3 mph 1005.7mb 47f 45f
5:24 2
mph
1005.7mb 47f 45f
5:18 2 3 mph 1005.7mb 47f 46f
5:12 3
mph
1005.6mb 47f 46f
5:06 1 2 mph 1005.6mb 47f 46f
5:00 1
mph
1005.6mb 47f 46f
4:54  -  1 mph 1005.5mb 47f 46f
4:48  -  1 mph 1005.5mb 47f 46f
4:36  -  1 mph 1005.3mb 47f 46f
4:30  -  mph 1005.3mb 47f 46f
4:24  -  1 mph 1005.2mb 46f 47f
4:18 1 2 mph 1005.1mb 46f 47f
4:12 1 2 mph 1005mb 46f 47f
4:06  -  1 mph 1004.9mb 46f 46f
4:00  -  1 mph 1004.8mb 47f 46f
3:54 1 2 mph 1004.7mb 47f 46f
3:48 2
mph
1004.6mb 47f 46f
3:36 1 3 mph 1004.4mb 47f 46f
3:30 2 3 mph 1004.4mb 47f 46f
3:24 2 3 mph 1004.3mb 47f 46f
3:18 1 2 mph 1004.2mb 47f 46f
3:12 1 3 mph 1004.1mb 47f 46f
3:06 3 5 mph 1004mb 47f 46f
3:00 2 6 mph 1003.9mb 47f 46f
2:54 3 5 mph 1003.8mb 47f 46f
2:48 5 6 mph 1003.7mb 47f 46f
2:36 2 3 mph 1003.5mb 47f 46f
2:30 2 3 mph 1003.4mb 47f 46f
2:24 2 5 mph 1003.3mb 47f 46f
2:18 2 3 mph 1003.2mb 47f 46f
2:12 2 3 mph 1003.2mb 47f 46f
2:06 1 2 mph 1003mb 47f 45f
2:00 2 3 mph 1002.9mb 47f 45f
1:54 2 3 mph 1002.9mb 47f 45f
1:48 2 5 mph 1002.8mb 47f 45f
1:36 3 5 mph 1002.7mb 47f 45f
1:30 3 6 mph 1002.6mb 47f 45f
1:24 3 5 mph 1002.5mb 47f 45f
1:18 3 5 mph 1002.3mb 47f 45f
1:12 2 3 mph 1002.2mb 47f 45f
1:06 2 3 mph 1002.1mb 47f 45f
1:00 3
mph
1002mb 47f 45f
12:54 2 5 mph 1002mb 47f 45f
12:48 3 5 mph 1002mb 47f 45f
12:36 5 6 mph 1001.8mb 47f 45f
12:30 5 6 mph 1001.8mb 47f 45f
12:24 3 5 mph 1001.7mb 47f 45f
12:18 2 5 mph 1001.6mb 47f 45f
12:12 2 6 mph 1001.6mb 47f 45f
12:06 5 7 mph 1001.4mb 47f 45f
12:00 7 9 mph 1001.3mb 47f 45f
11:54 7 9 mph 1001.2mb 47f 45f
11:48 7 10 mph 1001.1mb 47f 45f
11:36 8 11 mph 1000.9mb 47f 45f
11:30 8 11 mph 1000.8mb 47f 45f
11:24 7 13 mph 1000.7mb 47f 45f
11:18 8 11 mph 1000.7mb 47f 45f
11:12 7 11 mph 1000.6mb 47f 45f
11:06 7 10 mph 1000.6mb 47f 45f
11:00 6 9 mph 1000.5mb 47f 45f
10:36 3 5 mph 1000.3mb 46f 45f
10:30 2 3 mph 1000.3mb 46f 45f
10:24 2
mph
1000.3mb 46f 44f
10:18 1 3 mph 1000.3mb 46f 44f
10:12 2 3 mph 1000.2mb 46f 44f
10:06 2 3 mph 1000.2mb 46f 44f
10:00 1 3 mph 1000.2mb 46f 44f
9:54 2 3 mph 1000.1mb 46f 44f
9:48 3 5 mph 1000.1mb 46f 44f
9:36 5 7 mph 1000mb 46f 44f
9:30 2 5 mph 999.9mb 46f 44f
9:24 2 7 mph 999.9mb 46f 44f
9:18 1 6 mph 999.9mb 46f 44f
9:12 6 9 mph 999.9mb 46f 44f
9:06 3 9 mph 999.8mb 46f 44f
9:00 6 10 mph 999.8mb 47f 44f
8:54 2 6 mph 999.9mb 47f 44f
8:48 3 6 mph 999.9mb 47f 44f
8:36 5 6 mph 999.8mb 47f 43f
8:30 3 5 mph 999.8mb 47f 43f
8:24 2 5 mph 999.7mb 47f 43f
8:18 1 2 mph 999.7mb 47f 42f
8:12  -  2 mph 999.6mb 47f 42f
8:06 1 3 mph 999.6mb 47f 42f
8:00 1 2 mph 999.6mb 47f 42f
7:54 1 3 mph 999.6mb 47f 42f
7:48 2 5 mph 999.6mb 47f 42f
7:36 3 5 mph 999.5mb 47f 42f
7:30 2 3 mph 999.5mb 47f 42f
7:24 3
mph
999.5mb 47f 42f
7:18 5
mph
999.5mb 47f 42f
7:12 3
mph
999.5mb 47f 42f
7:06 2 3 mph 999.6mb 47f 42f
7:00 2 3 mph 999.6mb 47f 43f
6:54 2 3 mph 999.7mb 46f 43f
6:48 1 3 mph 999.8mb 46f 43f
6:36 1 2 mph 999.8mb 46f 42f
6:30 1 2 mph 999.8mb 47f 42f
6:24 2 3 mph 999.8mb 47f 42f
6:18 2 3 mph 999.8mb 47f 42f
6:12 3 6 mph 999.8mb 47f 42f
6:06 5 6 mph 999.9mb 47f 42f
6:00 3 5 mph 999.9mb 47f 42f
5:54 3 5 mph 1000mb 47f 42f
5:48 3 5 mph 1000mb 47f 42f
5:36 2 3 mph 1000mb 47f 42f
5:30 2 3 mph 1000mb 47f 42f
5:24 2 3 mph 1000mb 47f 42f
5:18 2 3 mph 1000.1mb 47f 42f
5:12  -  2 mph 1000.2mb 47f 42f
5:06 1 2 mph 1000.3mb 47f 42f
5:00 2 5 mph 1000.4mb 47f 42f
4:54 3
mph
1000.4mb 47f 42f
4:48 2 3 mph 1000.5mb 47f 42f
4:36 2
mph
1000.5mb 47f 42f
4:30 1 2 mph 1000.6mb 47f 42f
4:24 1 2 mph 1000.6mb 47f 42f
4:18 1 2 mph 1000.7mb 47f 42f
4:12 2
mph
1000.7mb 47f 42f
4:06 1 2 mph 1000.7mb 47f 42f
4:00 2
mph
1000.8mb 47f 42f
3:54 1 2 mph 1000.9mb 47f 43f
3:48 2 3 mph 1001mb 47f 43f
3:36 3 5 mph 1001.2mb 47f 44f
3:30 3 6 mph 1001.3mb 47f 44f
3:24 3 5 mph 1001.3mb 47f 44f
3:18 5
mph
1001.3mb 47f 44f
3:12 3 6 mph 1001.3mb 47f 44f
3:06 5 6 mph 1001.4mb 47f 44f
3:00 3 5 mph 1001.4mb 47f 44f
2:54 3 5 mph 1001.4mb 47f 43f
2:48 5 6 mph 1001.5mb 47f 42f
2:36 3 5 mph 1001.5mb 47f 42f
2:30 3 5 mph 1001.5mb 47f 41f
2:24 3 5 mph 1001.6mb 47f 41f
2:18 2 3 mph 1001.7mb 47f 41f
2:12 1 3 mph 1001.7mb 47f 41f
2:06 2 3 mph 1001.8mb 47f 40f
2:00 2 3 mph 1001.8mb 47f 40f
1:54 2 3 mph 1001.8mb 47f 40f
1:48 2 3 mph 1001.9mb 47f 40f
1:36 3 5 mph 1001.8mb 47f 41f
1:30 1 3 mph 1001.9mb 47f 41f
1:24 2 3 mph 1001.8mb 47f 40f